Probability
0 0 0 0 0 0 0 0 0 0 0 0 0 0 0 0 0 0 0 0 0 0 0 0 0 0 0 0 0 0 0 0 0 0 0 0 0 0 0 0 0 0 0
0 0 0 0 0 0 0 0 0 0 0 0 0 0 0 0 0 0 0 0 0 0 0 0 0 0 0 0 0 0 0 0 0 0 0 0 0 0 0 0 0 0 0
0 0 0 0 0 0 0 0 0 0 0 0 0 0 0 0 0 0 0 0 0 0 0 0 0 0 0 0 0 0 0 0 0 0 0 0 0 0 0 0 0 0 0
0 0 0 0 0 0 0 0 0 0 0 0 0 0 0 0 0 0 0 0 0 0 0 0 0 0 0 0 0 0 0 0 0 0 0 0 0 0 0 0 0 0 0
0 0 0 0 0 0 0 0 0 0 0 0 0 0 0 0 0 0 0 0 0 0 0 0 0 0 0 0 0 0 0 0 0 0 0 0 0 0 0 0 0 0 0
0 0 0 0 0 0 0 0 0 0 0 0 0 0 0 0 0 0 0 0 0 0 0 0 0 0 0 0 0 0 0 0 0 0 0 0 0 0 0 0 0 0 0
0 0 0 0 0 0 0 0 0 0 0 0 0 0 0 0 0 0 0 0 0 0 0 0 0 0 0 0 0 0 0 0 0 0 0 0 0 0 0 0 0 0 0
0 0 0 0 0 0 0 0 0 0 0 0 0 0 0 0 0 0 0 0 0 0 0 0 0 0 0 0 0 0 0 0 0 0 0 0 0 0 0 0 0 0 0
0 0 0 0 0 0 0 0 0 0 0 0 0 0 0 0 0 0 0 0 0 0 0 0 0 0 0 0 0 0 0 0 0 0 0 0 0 0 0 0 0 0 0
0 0 0 0 0 0 0 0 0 0 0 0 0 0 0 0 0 0 0 0 0 0 0 0 0 0 0 0 0 0 0 0 0 0 0 0 0 0 0 0 0 0 0
0 0 0 0 0 0 0 0 0 0 0 0 0 0 0 0 0 0 0 0 0 0 0 0 0 0 0 0 0 0 0 0 0 0 0 0 0 0 0 0 0 0 0
0 0 0 0 0 0 0 0 0 0 0 0 0 0 0 0 0 0 0 0 0 0 0 0 0 0 0 0 0 0 0 0 0 0 0 0 0 0 0 0 0 0 0
0 0 0 0 0 0 0 0 0 0 0 0 0 0 0 0 0 0 0 0 0 0 0 0 0 0 0 0 0 0 0 0 0 0 0 0 0 0 0 0 0 0 0
0 0 0 0 0 0 0 0 0 0 0 0 0 0 0 0 0 0 0 0 0 0 0 0 0 0 0 0 0 0 0 0 0 0 0 0 0 0 0 0 0 0 0
0 0 0 0 0 0 0 0 0 0 0 0 0 0 0 0 0 0 0 0 0 0 0 0 0 0 0 0 0 0 0 0 0 0 0 0 0 0 0 0 0 0 0
0 0 0 0 0 0 0 0 0 0 0 0 0 0 0 0 0 0 0 0 0 0 0 0 0 0 0 0 0 0 0 0 0 0 0 0 0 0 0 0 0 0 0
0 0 0 0 0 0 0 0 0 0 0 0 0 0 0 0 0 0 0 0 0 0 0 0 0 0 0 0 0 0 0 0 0 0 0 0 0 0 0 0 0 0 0
0 0 0 0 0 0 0 0 0 0 0 0 0 0 0 0 0 0 0 0 0 0 0 0 0 0 0 0 0 0 0 0 0 0 0 0 0 0 0 0 0 0 0
0 0 0 0 0 0 0 0 0 0 0 0 0 0 0 0 0 0 0 0 0 0 0 0 0 0 0 0 0 0 0 0 0 0 0 0 0 0 0 0 0 0 0
0 0 0 0 0 0 0 0 0 0 0 0 0 0 0 0 0 0 0 0 0 0 0 0 0 0 0 0 0 0 0 0 0 0 0 0 0 0 0 0 0 0 0
0 0 0 0 0 0 0 0 0 0 0 0 0 0 0 0 0 0 0 0 0 0 0 0 0 0 0 0 0 0 0 0 0 0 0 0 0 0 0 0 0 0 0
0 0 0 0 0 0 0 0 0 0 0 0 0 0 0 0 0 0 0 0 0 0 0 0 0 0 0 0 0 0 0 0 0 0 0 0 0 0 0 0 0 0 0
0 0 0 0 0 0 0 0 0 0 0 0 0 0 0 0 0 0 0 0 0 0 0 0 0 0 0 0 0 0 0 0 0 0 0 0 0 0 0 0 0 0 0
0 0 0 0 0 0 0 0 0 0 0 0 0 0 0 0 0 0 0 0 0 0 0 0 0 0 0 0 0 0 0 0 0 0 0 0 0 0 0 0 0 0 0
0 0 0 0 0 0 0 0 0 0 0 0 0 0 0 0 0 0 0 0 0 0 0 0 0 0 0 0 0 0 0 0 0 0 0 0 0 0 0 0 0 0 0
0 0 0 0 0 0 0 0 0 0 0 0 0 0 0 0 0 0 0 0 0 0 0 0 0 0 0 0 0 0 0 0 0 0 0 0 0 0 0 0 0 0 0
Height
5839 5839 5839 5838 5838 5837 5836 5834 5833 5832 5830 5828 5826 5824 5822 5820 5817 5815 5813 5810 5808 5805 5802 5799 5797 5794 5791 5788 5785 5782 5779 5776 5773 5770 5767 5765 5762 5760 5757 5755 5753 5750 5748
5835 5834 5834 5833 5833 5832 5830 5829 5828 5826 5824 5822 5820 5818 5816 5813 5811 5809 5806 5804 5801 5798 5795 5792 5789 5786 5783 5780 5777 5774 5771 5768 5765 5762 5759 5756 5753 5751 5748 5745 5743 5741 5739
5830 5829 5829 5828 5827 5826 5825 5823 5822 5820 5818 5816 5814 5812 5809 5807 5805 5802 5800 5797 5794 5791 5788 5785 5782 5779 5776 5773 5769 5766 5763 5760 5756 5753 5750 5747 5744 5741 5738 5736 5733 5731 5729
5824 5824 5823 5822 5821 5820 5819 5817 5816 5814 5812 5810 5808 5805 5803 5801 5798 5796 5793 5790 5787 5784 5781 5778 5775 5771 5768 5765 5761 5758 5755 5751 5748 5745 5741 5738 5735 5732 5729 5726 5723 5721 5718
5818 5818 5817 5816 5815 5814 5812 5811 5809 5807 5805 5803 5801 5799 5796 5794 5791 5789 5786 5783 5780 5777 5774 5771 5767 5764 5760 5757 5753 5750 5747 5743 5739 5736 5732 5729 5725 5722 5719 5716 5713 5710 5708
5812 5812 5811 5810 5809 5807 5806 5804 5802 5801 5799 5797 5794 5792 5790 5787 5784 5782 5779 5776 5773 5770 5766 5763 5760 5756 5752 5749 5745 5741 5738 5734 5730 5726 5723 5719 5716 5712 5709 5706 5703 5700 5698
5806 5805 5804 5803 5802 5801 5799 5797 5796 5794 5792 5790 5787 5785 5783 5780 5777 5775 5772 5769 5766 5762 5759 5755 5752 5748 5744 5740 5736 5733 5729 5725 5721 5717 5713 5709 5706 5703 5699 5696 5693 5690 5687
5799 5798 5797 5796 5795 5794 5792 5790 5788 5786 5784 5782 5780 5778 5776 5774 5770 5767 5764 5761 5758 5755 5751 5747 5744 5740 5736 5732 5728 5724 5720 5715 5711 5707 5704 5700 5696 5693 5689 5686 5683 5680 5677
5792 5791 5790 5789 5788 5786 5785 5783 5781 5779 5777 5775 5773 5771 5769 5766 5763 5760 5757 5754 5750 5747 5743 5739 5735 5732 5728 5724 5719 5715 5711 5706 5702 5698 5694 5690 5687 5683 5679 5676 5672 5669 5666
5784 5783 5782 5781 5780 5778 5777 5775 5773 5772 5770 5768 5765 5763 5761 5758 5756 5753 5749 5746 5742 5739 5735 5731 5727 5723 5719 5715 5711 5706 5702 5697 5693 5689 5685 5681 5676 5672 5669 5665 5661 5658 5654
5776 5775 5774 5773 5772 5770 5769 5767 5766 5764 5762 5760 5758 5755 5753 5750 5747 5744 5742 5738 5734 5730 5727 5723 5719 5714 5710 5706 5701 5697 5692 5688 5683 5679 5675 5670 5666 5662 5657 5653 5649 5645 5642
5768 5767 5766 5765 5764 5762 5761 5759 5758 5756 5754 5752 5750 5747 5744 5742 5739 5736 5733 5730 5726 5722 5718 5714 5710 5705 5701 5696 5692 5687 5683 5678 5673 5669 5664 5660 5655 5650 5646 5641 5637 5633 5628
5759 5758 5757 5756 5755 5754 5753 5751 5750 5748 5746 5744 5741 5739 5736 5733 5730 5727 5724 5721 5717 5714 5710 5705 5700 5696 5691 5687 5682 5677 5673 5668 5663 5658 5653 5648 5643 5639 5634 5629 5624 5619 5614
5750 5749 5748 5748 5747 5746 5744 5743 5741 5740 5738 5735 5733 5730 5728 5725 5722 5718 5715 5712 5708 5705 5701 5696 5691 5686 5682 5677 5672 5667 5662 5657 5652 5647 5642 5636 5631 5626 5621 5615 5610 5604 5598
5740 5740 5739 5739 5738 5737 5736 5734 5733 5731 5729 5727 5724 5722 5719 5716 5713 5710 5706 5703 5700 5696 5692 5687 5682 5677 5672 5667 5662 5657 5651 5646 5641 5635 5630 5624 5618 5612 5606 5600 5594 5588 5582
5731 5731 5730 5730 5729 5728 5727 5726 5724 5722 5721 5718 5716 5713 5710 5707 5704 5701 5697 5694 5690 5686 5682 5678 5672 5667 5661 5656 5651 5646 5640 5634 5628 5622 5616 5610 5604 5598 5591 5585 5578 5571 5564
5721 5721 5721 5721 5720 5719 5718 5717 5716 5714 5712 5709 5707 5704 5702 5699 5695 5692 5688 5684 5680 5676 5672 5668 5662 5656 5651 5645 5640 5634 5628 5622 5616 5609 5603 5596 5589 5582 5575 5568 5560 5553 5545
5712 5712 5712 5712 5711 5710 5709 5708 5706 5705 5702 5700 5698 5695 5693 5690 5687 5683 5679 5675 5670 5666 5661 5657 5652 5646 5640 5634 5628 5622 5616 5609 5602 5595 5588 5581 5573 5565 5558 5551 5543 5535 5526
5702 5702 5702 5702 5702 5701 5700 5699 5697 5695 5693 5691 5689 5686 5684 5681 5678 5674 5670 5665 5660 5656 5651 5646 5641 5635 5629 5622 5616 5610 5603 5596 5588 5581 5573 5565 5557 5549 5542 5534 5525 5517 5508
5692 5693 5693 5693 5692 5691 5690 5689 5688 5686 5684 5682 5680 5677 5675 5671 5668 5664 5660 5655 5650 5645 5640 5635 5629 5623 5617 5610 5603 5597 5590 5582 5575 5567 5558 5550 5542 5533 5525 5517 5509 5499 5489
5683 5683 5683 5683 5682 5682 5681 5680 5678 5676 5675 5673 5670 5668 5665 5662 5658 5654 5649 5645 5640 5635 5629 5623 5617 5611 5604 5597 5590 5583 5576 5569 5562 5553 5544 5535 5526 5518 5509 5500 5490 5481 5472
5673 5673 5674 5673 5673 5672 5671 5670 5668 5667 5665 5663 5661 5658 5655 5652 5648 5643 5639 5634 5629 5623 5617 5611 5605 5598 5591 5584 5577 5569 5562 5555 5548 5541 5531 5522 5511 5502 5493 5484 5474 5464 5455
5663 5664 5664 5664 5663 5662 5661 5660 5659 5657 5655 5653 5651 5648 5645 5641 5637 5633 5628 5623 5618 5611 5605 5599 5592 5585 5578 5571 5563 5556 5547 5539 5532 5523 5515 5508 5497 5487 5477 5467 5458 5449 5440
5654 5654 5654 5654 5653 5652 5651 5650 5649 5647 5646 5644 5641 5638 5635 5631 5627 5623 5618 5613 5606 5600 5593 5587 5580 5572 5564 5556 5548 5540 5532 5525 5517 5507 5497 5492 5483 5473 5462 5452 5442 5433 5425
5644 5644 5644 5643 5643 5642 5641 5640 5639 5638 5636 5634 5631 5628 5624 5621 5616 5612 5607 5602 5596 5589 5581 5574 5566 5558 5550 5542 5534 5526 5518 5509 5503 5494 5483 5475 5468 5460 5451 5439 5428 5419 5411
5634 5634 5634 5634 5633 5633 5632 5631 5629 5628 5626 5624 5621 5618 5614 5610 5605 5600 5595 5590 5584 5577 5569 5562 5554 5546 5537 5529 5520 5511 5503 5495 5487 5480 5471 5462 5453 5444 5439 5429 5418 5408 5400
Wind_Speed
18 19 20 21 22 23 25 26 26 27 28 29 29 30 31 31 32 33 34 34 35 35 36 37 37 38 38 38 38 39 40 40 40 40 41 41 41 41 42 43 43 43 43
20 21 22 23 24 25 26 27 28 29 29 30 31 31 32 32 33 34 35 35 36 36 37 38 38 39 39 39 40 40 41 41 41 41 41 41 42 42 43 43 43 43 43
22 23 24 25 26 27 28 29 29 30 30 31 31 32 33 34 34 35 36 36 37 38 38 38 39 40 40 40 41 41 41 41 42 42 42 43 43 43 44 43 43 43 43
24 25 26 27 28 29 29 30 31 31 32 32 33 34 34 35 35 36 36 37 38 39 39 39 39 40 41 41 41 41 41 42 42 43 43 44 44 44 44 44 43 43 44
26 27 28 29 29 30 31 31 32 33 33 33 34 34 35 36 36 36 37 38 39 39 39 40 40 41 42 42 42 42 43 43 44 44 45 45 45 44 44 44 44 43 43
28 29 30 30 30 31 32 32 33 34 34 34 34 35 36 36 37 37 38 39 40 40 40 41 41 42 42 42 43 43 44 44 45 45 45 45 44 44 44 44 44 44 44
31 31 31 31 32 32 33 33 34 35 35 35 35 36 37 37 37 38 38 40 40 40 41 41 42 43 43 43 44 44 45 45 45 45 44 44 44 44 44 43 43 43 43
32 32 33 33 34 34 34 35 35 35 36 36 36 37 37 38 38 38 39 40 41 41 42 42 43 43 43 44 44 45 45 45 44 44 43 43 43 43 43 43 43 43 43
34 34 35 35 35 35 36 36 36 36 36 37 37 37 38 38 38 39 40 41 42 42 42 42 43 43 44 44 44 44 44 44 44 43 43 44 44 44 44 44 44 44 45
35 36 36 36 37 37 36 36 37 37 37 38 38 39 39 39 39 40 41 41 42 42 42 42 43 44 44 44 44 44 44 44 44 44 44 45 45 45 45 45 46 46 47
37 37 38 38 38 38 37 37 37 37 38 38 39 39 39 40 40 41 41 41 42 42 42 43 44 44 44 45 45 45 45 45 45 45 46 46 46 46 47 47 48 48 49
39 39 39 39 39 39 38 38 38 38 38 39 39 40 40 41 41 41 41 42 42 42 43 44 44 45 45 46 46 46 46 46 46 47 47 47 48 48 49 49 50 51 52
40 40 40 40 39 39 39 38 38 38 39 39 40 40 41 41 41 41 42 42 42 43 44 44 45 46 47 47 47 47 47 48 48 48 49 49 50 51 51 52 53 54 56
41 42 41 40 40 40 40 39 39 40 40 41 41 41 41 42 42 41 42 43 43 44 44 45 46 47 47 47 47 48 48 49 49 50 51 51 52 53 54 55 56 58 59
42 42 41 41 41 41 40 39 40 41 41 41 41 41 42 42 42 42 43 44 44 45 45 46 47 48 48 48 49 49 50 51 51 52 53 54 55 56 57 58 60 61 62
43 42 42 42 41 40 40 40 40 41 41 42 42 42 42 42 42 43 44 44 45 46 47 47 48 49 50 50 50 51 52 52 53 55 55 56 58 59 61 62 63 64 66
43 42 42 41 41 40 40 40 40 41 42 42 42 42 42 42 42 44 45 46 46 47 48 49 50 51 51 52 53 53 54 54 56 57 58 59 61 62 63 64 65 67 68
43 42 42 41 40 40 40 40 41 41 42 42 43 43 43 43 43 45 46 46 47 48 49 50 51 51 52 53 54 55 56 57 58 59 60 61 63 63 64 65 66 68 69
42 42 41 41 41 41 41 41 41 41 42 42 42 42 43 43 44 45 46 47 47 49 51 52 52 53 54 55 56 57 58 59 60 61 62 63 63 64 65 66 67 68 69
42 41 41 41 41 41 41 41 41 42 42 42 42 43 43 44 45 47 47 48 49 51 52 53 53 54 55 56 57 58 59 60 61 62 63 63 64 65 66 67 68 68 68
41 40 40 40 40 40 40 40 41 42 42 42 43 43 44 45 46 47 48 49 50 51 53 54 55 56 57 58 59 60 60 61 61 62 63 64 65 66 66 67 67 67 67
40 40 39 39 40 40 40 40 41 41 42 42 42 43 44 46 46 47 49 50 51 52 54 56 57 58 59 60 60 61 62 63 63 63 64 64 66 66 66 67 67 66 66
39 39 38 39 39 40 40 40 40 40 41 42 43 44 45 45 47 48 49 51 52 54 55 57 58 59 60 61 62 63 63 64 64 65 65 64 65 66 66 66 66 65 63
38 38 38 38 39 39 39 39 39 40 41 42 42 43 45 46 47 49 50 52 53 55 57 58 59 60 61 62 63 64 64 64 64 64 65 65 64 64 64 65 64 63 60
38 38 38 38 39 39 39 39 39 40 41 41 42 44 45 46 48 49 51 52 54 56 58 58 59 60 61 62 63 64 64 64 63 63 64 64 63 62 61 62 61 59 56
37 37 38 38 38 38 38 38 39 40 40 41 43 43 45 47 48 50 51 53 55 56 57 58 59 60 62 63 64 64 64 63 63 63 62 62 61 61 59 57 57 55 52
Wind_Direction
279 284 288 291 293 296 298 300 300 301 302 302 302 302 302 302 302 301 301 301 300 301 301 301 301 301 300 299 299 299 299 298 297 296 295 294 294 293 292 291 289 288 287
281 285 288 290 293 295 297 299 300 301 302 301 301 301 301 301 302 302 301 301 301 302 302 302 302 301 301 300 301 300 300 299 298 297 297 296 295 295 294 292 291 290 289
283 285 288 290 292 294 297 298 299 300 301 301 301 301 301 301 301 302 302 302 302 303 303 303 303 302 302 302 302 301 300 300 299 299 298 297 297 296 295 294 292 291 290
282 285 287 290 292 294 296 297 298 299 300 300 300 300 301 301 301 302 302 302 303 303 304 303 303 303 303 302 302 301 300 300 300 299 299 298 298 296 295 294 293 292 290
282 284 287 290 292 294 295 296 297 298 299 299 299 300 301 301 301 302 302 302 303 304 304 304 304 304 303 303 302 302 302 301 301 300 300 299 298 296 295 294 293 292 291
281 283 286 289 292 293 295 296 296 297 298 298 298 299 300 301 301 301 302 303 304 304 304 304 304 304 304 303 303 303 303 302 302 301 301 300 298 297 296 295 294 293 292
280 283 286 288 290 291 292 294 295 296 296 297 298 299 299 300 300 301 302 303 304 304 304 304 304 304 304 304 304 304 304 304 303 302 302 301 300 299 298 297 296 294 293
279 282 284 286 288 290 291 292 294 295 295 296 297 298 298 299 299 300 301 303 304 304 304 305 305 305 305 305 305 305 305 305 304 303 303 302 301 301 299 298 297 296 294
278 280 283 285 287 288 289 291 292 293 294 295 296 297 298 298 298 299 300 302 303 304 304 305 305 305 306 306 306 306 306 305 305 304 303 303 303 302 301 299 298 296 295
276 279 282 284 285 286 288 289 291 292 293 294 295 296 297 298 298 299 300 302 303 303 305 305 306 306 306 307 307 307 307 306 305 305 304 304 303 302 301 300 299 297 296
275 278 280 281 283 284 286 288 289 291 292 293 294 295 297 298 299 299 300 302 303 303 305 306 307 307 307 307 308 307 307 307 306 305 305 304 304 303 302 301 300 298 297
274 276 278 280 281 283 284 286 288 290 291 292 293 295 297 298 298 299 300 302 303 304 305 306 307 307 307 308 308 308 308 307 307 306 306 305 304 303 302 301 300 299 298
273 275 276 278 280 282 284 286 288 289 291 292 293 295 296 297 298 299 300 302 303 304 306 306 307 307 308 308 308 308 308 308 308 307 306 305 305 304 303 302 301 299 298
272 273 275 277 279 281 283 285 286 288 289 291 293 294 295 297 297 299 300 301 303 304 306 306 307 307 308 308 308 309 309 308 308 307 307 306 305 304 303 302 301 300 299
271 273 274 276 278 280 281 283 285 287 289 291 292 293 294 296 297 299 300 301 303 304 305 306 306 307 308 308 308 308 308 308 307 307 306 306 305 304 303 302 301 301 300
270 272 273 276 278 279 280 282 284 285 288 290 291 292 294 295 297 298 300 301 302 304 304 305 306 306 307 307 308 308 308 308 308 307 307 306 305 305 303 302 302 301 301
270 272 274 276 277 278 280 281 283 285 287 289 290 291 292 294 296 298 300 301 302 303 304 305 306 306 307 307 308 308 308 308 308 308 307 307 306 305 305 304 303 303 303
269 271 273 275 276 278 279 281 282 285 286 288 289 290 291 294 296 298 299 300 302 303 304 305 306 306 306 307 308 308 308 308 308 308 308 307 307 307 306 306 305 305 305
268 270 272 274 275 276 278 280 282 284 285 286 287 289 291 293 295 297 299 300 301 303 304 305 306 306 306 307 308 308 308 309 309 309 309 308 308 308 308 307 307 307 307
267 270 271 273 274 276 278 280 282 283 284 285 286 289 291 293 295 297 298 299 301 303 304 305 306 306 306 307 307 308 308 309 309 310 309 309 309 309 308 309 309 309 309
267 269 271 272 274 276 278 280 281 282 283 284 286 289 290 293 295 297 298 299 301 303 304 304 305 305 306 307 308 308 308 309 309 309 309 309 309 309 310 310 310 310 310
266 268 270 272 274 276 278 279 280 281 282 284 286 288 290 293 295 297 298 300 302 303 303 305 305 305 306 307 308 308 308 309 309 309 309 309 309 310 310 311 311 311 311
266 268 270 272 274 276 277 278 279 280 282 283 286 288 290 293 295 297 298 300 302 303 304 305 305 306 307 308 308 308 309 309 309 309 309 310 310 311 311 311 312 312 312
266 268 270 272 274 275 276 277 278 280 282 284 286 288 290 292 294 296 298 301 302 303 304 305 306 306 307 308 308 308 308 309 310 309 310 311 311 311 311 312 312 312 312
266 268 270 272 274 274 275 277 278 280 282 285 287 289 291 293 295 297 299 301 302 303 304 305 306 306 307 308 308 309 309 309 310 310 311 311 312 312 312 313 313 313 313
267 269 270 272 274 274 276 277 280 282 284 286 288 291 292 294 296 298 300 301 303 304 305 306 306 306 308 309 309 310 310 310 311 311 312 312 313 313 314 314 314 314 313